CZ-4C R/B

Satellite information

Favourite Embed

Satellite Type and Status

ROCKET BODYIN ORBIT

Key statistics

Satellite CZ-4C R/B at a glance.

Uptime

4145

Days in orbit

Revolutions

≈ 13.7

Per day

Orbit

LEO

Low Earth Orbit

Inclination

63.4

Latest

Satellite identification and parameters

Extended collection of information and parameters for CZ-4C R/B.

Object identification

Identified? True

Debris? False

Object name: CZ-4C R/B

International designator: 2014-047D

Object number (NORAD): 40112

Object ID (CCSDS): 40112

Country: PEOPLES REPUBLIC OF CHINA (PRC)

Current information (Y/N): Y

RCS size: LARGE

Orbital parameters

Period: 105.088 minutes

Inclination: 63.4142 deg

SMA: 7376.719 km

Apoapsis: 1398.791 km

Periapsis: 598.378 km

RAAN: 46.8512 deg

Eccentricy: 0.0542526

Argument of periapsis: 359.9938 deg

Mean anomaly: 0.1006 deg

Mean motion: 13.70275432 rev/day

Mean motion (dot): 0.00000226 rev/day2

B* drag term: 0.00013483502 1/REarth

Two-line elements (TLE)

Creation date: Dec. 12, 2025, 10:14 a.m.

Reference frame: TEME

Reference center: EARTH

Epoch: Dec. 12, 2025, 7:07 a.m. UTC

TLE line 0: 0 CZ-4C R/B

TLE line 1: 1 40112U 14047D 25346.29720932 .00000226 00000-0 13484-3 0 9991

TLE line 2: 2 40112 63.4142 46.8512 0542526 359.9938 0.1006 13.70275432567195

Live tracking on map

Real-time ground track for satellite CZ-4C R/B.

In-orbit conjunctions

A list of the most updated potential collisions computed for object CZ-4C R/B.

Target Orbit TCA Probability of collision Miss distance Type
SL-14 DEB LEO 2025-04-16 22:18:00 0.0002373862 906.0 (m) DEBRIS
CZ-6A DEB SSO 2024-09-28 21:30:58 0.0002090801 295.0 (m) DEBRIS

Associated space launch

CZ-4C R/B was lifted into orbit during the mission ‘Long March 4C | Yaogan 20A, Yaogan 20B, Yaogan 20C’, on board a Long March 4C space rocket.

The launch took place on Aug. 9, 2014, 5:45 a.m. from Launch Area 94 (SLS-2 / 603).

For more information about the launch, click the button.

Launch to space Long March 4C | Yaogan 20A, Yaogan 20B, Yaogan 20C
Long March 4C | Yaogan 20A, Yaogan 20B, Yaogan 20C

Agency: N/A

Status: Launch Successful

Launch date: Aug. 9, 2014, 5:45 a.m. UTC

Rocket: Long March 4C

Launch pad: Launch Area 94 (SLS-2 / 603)

Location: Jiuquan Satellite Launch Center, People's Republic of China

...

Latest news about this satellite

There are no fresh news available about this satellite. Check back as we update our databases every day.


Newsletter sign-up

Weekly statistics, charts and insights to help you stay on top of the space industry.